Find Starlink 32621

NORAD ID: 62303 Int'l Des: 2024-239 Owner: SPXS Country: US Constellation: starlink operational
LEOCIRCULAR

現在のビュー

3D地球を読み込み中...

About Starlink 32621

Starlink 32621 (NORAD 62303) is a starlink constellation satellite (v2 mini) launched Dec 13, 2024 by SPXS of US. It operates in LEO, CIRCULAR orbit with a mass of 730.00 kg.

次回通過

Passes for default location (London). Set your location on the main map for personalized predictions.

高度履歴

Loading altitude history...

軌道要素

1 62303U 24239C 26235.97085517 .00021338 00000-0 64087-3 0 9999
2 62303 53.1575 122.1316 0000674 66.3964 293.7109 15.34399744 95205
Epoch: Aug 23, 2026 • Age: 7 hours

現在のステータス

高度 481.6 km
遠地点 / 近地点 N/A
速度 7.62 km/s
衛星直下点 -53.24°S, 38.81°W
打ち上げ日 Dec 13, 2024
運用期間 1.6 years
タイプ internet

技術仕様

分類 Payload
質量 730.00 kg
乾燥質量 700.00 kg
総質量 730.00 kg
長さ 0.30 m
直径 4.10 m
スパン 29.00 m
形状 Box + pan
製造者 SPXS
バスタイプ Starlink V2M
フェーズステータス In Orbit
所有者/国 SPXS/US

Most Searched